(299102) = 2005 EX108

Discovered at Catalina on 2005-03-04 by CSS.

Orbit

Orbit type: Main Belt

Note: WebGL enabled browser required.

epoch2023-09-13.0
epoch JD2460200.5
perihelion date2019-04-29.72691
perihelion JD2458603.22691
argument of perihelion (°)265.57432
ascending node (°)321.64518
inclination (°)11.09457
eccentricity0.1404575
perihelion distance (AU)2.3528951
Tisserand w.r.t. Jupiter3.3
ΔV w.r.t. Earth (km/sec)10.2
semimajor axis (AU)2.7373808
mean anomaly (°)347.60035
mean daily motion (°/day)0.21762110
aphelion distance (AU)3.122
period (years)4.53
P-vector [x]-0.66762890
P-vector [y]-0.58367437
P-vector [z]-0.46216435
Q-vector [x]0.73485606
Q-vector [y]-0.61620181
Q-vector [z]-0.28334063
absolute magnitude16.09
phase slope0.15
uncertainty0
referenceMPO 779146
observations used421
oppositions13
arc length (days)6653
first opposition used2005
last opposition used2023
residual rms (arc-secs)0.73
perturbers coarse indicatorM-v
perturbers precise indicator003Ek
first observation date used2005-03-04.0
last observation date used2023-05-22.0
computer nameMPCLINUX
JD of orbit computation2456937.511587
perihelion JD uncertainty (days)2.9863E-04
argument of perihelion uncertainty (°)7.9801E-05
ascending node uncertainty (°)4.4880E-05
inclination uncertainty (°)1.7519E-05
eccentricity uncertainty 1.0476E-07
perihelion distance uncertainty (AU)2.9379E-07
Minimum Orbit Intersection Distances (in AU)
for orbit epoch: 2460000.5, reference: E2023-KB5
Mercury1.90417
Venus1.65392
Earth1.3758
Mars0.8409
Jupiter2.01947
Saturn6.10321
Uranus15.8327
Neptune26.8274

Observations

432 total observations over interval: 2005 03 04.27806 – 2023 05 22.162738
These data are available for download (format description).

Date (UT) J2000 RA J2000 Dec Magn Location Ref
2005 03 04.27806 11 17 30.20 -04 25 01.9 18.9 R 703 – Catalina Sky Survey MPS 129223
2005 03 04.28818 11 17 29.57 -04 25 02.6 19.7 R 703 – Catalina Sky Survey MPS 129223
2005 03 04.29846 11 17 28.95 -04 25 02.6 18.6 R 703 – Catalina Sky Survey MPS 129223
2005 03 04.30885 11 17 28.29 -04 25 01.5 19.2 R 703 – Catalina Sky Survey MPS 129223
2005 03 07.26139 11 14 35.35 -04 23 04.8 18.6   704 – Lincoln Laboratory ETS, New Mexico MPS 129223
2005 03 07.27306 11 14 34.63 -04 23 04.4 18.5   704 – Lincoln Laboratory ETS, New Mexico MPS 129223
2005 03 07.28473 11 14 33.93 -04 23 03.8 18.8   704 – Lincoln Laboratory ETS, New Mexico MPS 129223
2005 03 07.29709 11 14 33.11 -04 23 02.5 18.5   704 – Lincoln Laboratory ETS, New Mexico MPS 129223
2005 03 10.21940 11 11 39.92 -04 20 07.3 18.8 R 699 – Lowell Observatory-LONEOS MPS 129223
2005 03 10.24048 11 11 38.69 -04 20 05.7   699 – Lowell Observatory-LONEOS MPS 129223
2005 03 10.26156 11 11 37.32 -04 20 05.8   699 – Lowell Observatory-LONEOS MPS 129223
2005 03 10.28263 11 11 36.10 -04 20 03.6   699 – Lowell Observatory-LONEOS MPS 129223
2005 03 13.29162 11 08 37.42 -04 16 05.5 18.9   703 – Catalina Sky Survey MPS 129223
2005 03 13.30113 11 08 36.79 -04 16 03.9 19.1   703 – Catalina Sky Survey MPS 129223
2005 03 13.31060 11 08 36.26 -04 16 03.2 18.5   703 – Catalina Sky Survey MPS 129223
2005 03 13.32012 11 08 35.55 -04 16 00.1 18.2   703 – Catalina Sky Survey MPS 129223
2005 04 05.19269 10 49 20.12 -03 31 54.4 19.4 R 703 – Catalina Sky Survey MPS 130811
2005 04 05.19992 10 49 19.88 -03 31 53.6 19.4 R 703 – Catalina Sky Survey MPS 130811
2005 04 05.20723 10 49 19.48 -03 31 50.8 19.3 R 703 – Catalina Sky Survey MPS 130811
2005 04 05.21450 10 49 19.18 -03 31 53.0 19.9 R 703 – Catalina Sky Survey MPS 130811
2005 04 09.22205 10 47 03.55 -03 24 35.2 19.5 R 699 – Lowell Observatory-LONEOS MPS 131756
2005 04 09.24637 10 47 02.74 -03 24 32.1   699 – Lowell Observatory-LONEOS MPS 131756
2005 04 09.27071 10 47 02.05 -03 24 28.8   699 – Lowell Observatory-LONEOS MPS 131756
2005 04 09.29502 10 47 01.25 -03 24 26.2   699 – Lowell Observatory-LONEOS MPS 131756
2006 06 22.45411 21 29 25.08 -20 56 40.6 19.6 R 644 – Palomar Mountain/NEAT MPS 198131
2006 06 22.46414 21 29 24.89 -20 56 40.2 19.7 R 644 – Palomar Mountain/NEAT MPS 198131
2006 06 22.47490 21 29 24.69 -20 56 39.7 19.9 R 644 – Palomar Mountain/NEAT MPS 198131
2006 08 14.22102 20 47 12.96 -20 44 23.9 19.1 R 644 – Palomar Mountain/NEAT MPS 198131
2006 08 14.24139 20 47 11.80 -20 44 22.9 19.4 R 644 – Palomar Mountain/NEAT MPS 198131
2006 08 14.26292 20 47 10.50 -20 44 21.4 18.9 R 644 – Palomar Mountain/NEAT MPS 198131
2006 09 26.11345 20 27 12.38 -18 58 34.1 20.4 V G96 – Mt. Lemmon Survey MPS 198131
2006 09 26.12057 20 27 12.42 -18 58 32.5 20.3 V G96 – Mt. Lemmon Survey MPS 198131
2006 09 26.12771 20 27 12.45 -18 58 31.0 20.1 V G96 – Mt. Lemmon Survey MPS 198131
2006 09 26.13484 20 27 12.49 -18 58 29.6 20.3 V G96 – Mt. Lemmon Survey MPS 198131
2008 12 05.33829 08 23 18.92 +28 23 16.6 20.1 V G96 – Mt. Lemmon Survey MPS 269265
2008 12 05.34509 08 23 18.81 +28 23 17.1 20.1 V G96 – Mt. Lemmon Survey MPS 269265
2008 12 05.35185 08 23 18.70 +28 23 17.3 20.1 V G96 – Mt. Lemmon Survey MPS 269265
2008 12 05.35869 08 23 18.56 +28 23 17.8 20.3 V G96 – Mt. Lemmon Survey MPS 269265
2008 12 31.31748 08 07 09.19 +28 54 42.9 19.6 V 703 – Catalina Sky Survey MPS 270149
2008 12 31.32535 08 07 08.72 +28 54 44.6 20.4 V 703 – Catalina Sky Survey MPS 270149
2008 12 31.33332 08 07 08.32 +28 54 42.0 19.5 V 703 – Catalina Sky Survey MPS 270149
2008 12 31.34117 08 07 07.86 +28 54 44.2 20.1 V 703 – Catalina Sky Survey MPS 270149
2009 01 30.23088 07 35 20.12 +28 42 58.8 20.2   704 – Lincoln Laboratory ETS, New Mexico MPS 272568
2009 01 30.24310 07 35 19.33 +28 42 59.1 20.3   704 – Lincoln Laboratory ETS, New Mexico MPS 272568
2009 01 30.25535 07 35 18.58 +28 42 58.0 20.2   704 – Lincoln Laboratory ETS, New Mexico MPS 272568
2009 01 30.26761 07 35 17.84 +28 42 56.4 20.0   704 – Lincoln Laboratory ETS, New Mexico MPS 272568
2009 03 18.17730 07 17 04.88 +25 47 22.6 20.3 V G96 – Mt. Lemmon Survey MPS 280074
2009 03 18.18486 07 17 05.02 +25 47 20.6 20.6 V G96 – Mt. Lemmon Survey MPS 280074
2009 03 18.19240 07 17 05.10 +25 47 18.6 20.2 V G96 – Mt. Lemmon Survey MPS 280074
2009 05 15.14199 08 07 45.33 +20 35 53.3 21.1 V G96 – Mt. Lemmon Survey MPS 286425
2009 05 15.15020 08 07 45.98 +20 35 50.4 21.0 V G96 – Mt. Lemmon Survey MPS 286425
2009 05 15.15844 08 07 46.63 +20 35 46.8 20.6 V G96 – Mt. Lemmon Survey MPS 286425
2009 05 15.16665 08 07 47.24 +20 35 43.9 21.2 V G96 – Mt. Lemmon Survey MPS 286425
2011 08 20.54010 23 52 28.464 +07 23 17.23 20.4 i F51 – Pan-STARRS 1, Haleakala MPS 388626
2011 08 20.55177 23 52 27.993 +07 23 17.73 20.3 i F51 – Pan-STARRS 1, Haleakala MPS 388626
2011 10 01.22304 23 17 35.88 +05 58 26.1 20.1 V G96 – Mt. Lemmon Survey MPS 394216
2011 10 01.23007 23 17 35.52 +05 58 24.8 20.2 V G96 – Mt. Lemmon Survey MPS 394216
2011 10 01.23711 23 17 35.16 +05 58 23.1 20.4 V G96 – Mt. Lemmon Survey MPS 394216
2011 10 01.24413 23 17 34.80 +05 58 21.5 20.2 V G96 – Mt. Lemmon Survey MPS 394216
2011 10 30.12688 23 02 45.60 +04 28 53.9 20.8 V G96 – Mt. Lemmon Survey MPS 399912
2011 10 30.13316 23 02 45.56 +04 28 53.2 20.7 V G96 – Mt. Lemmon Survey MPS 399912
2011 10 30.13944 23 02 45.45 +04 28 52.5 20.9 V G96 – Mt. Lemmon Survey MPS 399912
2011 10 30.14575 23 02 45.38 +04 28 51.2 20.7 V G96 – Mt. Lemmon Survey MPS 399912
2011 10 30.15209 23 02 45.31 +04 28 50.9 21.1 V G96 – Mt. Lemmon Survey MPS 399912
2011 10 31.11405 23 02 34.87 +04 26 56.6 20.9 V G96 – Mt. Lemmon Survey MPS 399912
2011 10 31.12101 23 02 34.80 +04 26 56.1 20.5 V G96 – Mt. Lemmon Survey MPS 399912
2011 10 31.12798 23 02 34.72 +04 26 55.3 20.7 V G96 – Mt. Lemmon Survey MPS 399912
2011 10 31.13474 23 02 34.62 +04 26 54.4 21.2 V G96 – Mt. Lemmon Survey MPS 399912
2011 10 31.14160 23 02 34.58 +04 26 53.6 20.9 V G96 – Mt. Lemmon Survey MPS 399912
2012 12 11.31463 04 21 19.51 +36 47 59.8 20.1 V G96 – Mt. Lemmon Survey MPS 447652
2012 12 11.32056 04 21 19.15 +36 47 57.8 20.1 V G96 – Mt. Lemmon Survey MPS 447652
2012 12 11.32650 04 21 18.75 +36 47 56.5 19.8 V G96 – Mt. Lemmon Survey MPS 447652
2012 12 11.33248 04 21 18.36 +36 47 54.9 19.8 V G96 – Mt. Lemmon Survey MPS 447652
2012 12 11.33841 04 21 17.96 +36 47 53.5 20.0 V G96 – Mt. Lemmon Survey MPS 447652
2014 01 01.37691 11 16 48.99 +02 50 03.7 20.1 V G96 – Mt. Lemmon Survey MPS 495131
2014 01 01.38361 11 16 49.11 +02 50 01.7 20.1 V G96 – Mt. Lemmon Survey MPS 495131
2014 01 01.39030 11 16 49.21 +02 49 59.1 20.3 V G96 – Mt. Lemmon Survey MPS 495131
2014 01 01.39699 11 16 49.33 +02 49 57.0 20.1 V G96 – Mt. Lemmon Survey MPS 495131
2014 01 10.48275 11 18 29.91 +01 57 33.9 19.9 V G96 – Mt. Lemmon Survey MPS 496472
2014 01 10.48801 11 18 29.93 +01 57 31.9 19.9 V G96 – Mt. Lemmon Survey MPS 496472
2014 01 10.49327 11 18 29.93 +01 57 30.4 19.8 V G96 – Mt. Lemmon Survey MPS 496472
2014 01 10.49854 11 18 29.95 +01 57 29.0 19.8 V G96 – Mt. Lemmon Survey MPS 496472
2014 01 26.58446 11 16 13.787 +00 47 54.86 20.0 r F51 – Pan-STARRS 1, Haleakala MPS 500093
2014 01 26.59608 11 16 13.520 +00 47 52.46 19.9 r F51 – Pan-STARRS 1, Haleakala MPS 500093
2014 02 22.46636 10 57 51.336 +00 08 10.31 19.1 i F51 – Pan-STARRS 1, Haleakala MPS 508363
2014 02 22.47857 10 57 50.629 +00 08 10.49 19.0 i F51 – Pan-STARRS 1, Haleakala MPS 508363
2014 02 22.49072 10 57 49.916 +00 08 10.57 19.0 i F51 – Pan-STARRS 1, Haleakala MPS 508363
2014 02 22.50288 10 57 49.199 +00 08 10.73 19.0 i F51 – Pan-STARRS 1, Haleakala MPS 508363
2014 02 27.26296 10 53 14.65 +00 10 31.4 19.4 V 703 – Catalina Sky Survey MPS 503823
2014 02 27.26797 10 53 14.34 +00 10 31.9 18.9 V 703 – Catalina Sky Survey MPS 503823
2014 02 27.27298 10 53 14.12 +00 10 31.8 19.1 V 703 – Catalina Sky Survey MPS 503823
2014 02 27.27799 10 53 13.79 +00 10 31.7 19.3 V 703 – Catalina Sky Survey MPS 503823
2014 02 27.38842 10 53 07.22 +00 10 37.1 19.1 V 703 – Catalina Sky Survey MPS 503823
2014 02 27.39304 10 53 06.82 +00 10 37.0 19.3 V 703 – Catalina Sky Survey MPS 503823
2014 02 27.39767 10 53 06.53 +00 10 37.2 19.1 V 703 – Catalina Sky Survey MPS 503823
